Goderich, Ontario

7:18 PM EDT on June 24, 2017 (GMT -0400)
Goderich

Weather History for CWGD - December, 2012

Change the Weather History Date:

Friday, December 7, 2012

  Actual Average (KP58) Record (KP58)
Temperature  
Mean Temperature 37 °F -  
Max Temperature 41 °F 36 °F 42 °F (2012)
Min Temperature 33 °F 27 °F 10 °F (2000)
Degree Days  
Heating Degree Days 28    
Moisture  
Dew Point 35 °F    
Average Humidity 87    
Maximum Humidity 100    
Minimum Humidity 70    
Precipitation  
Precipitation 0.00 in - - ()
Sea Level Pressure  
Sea Level Pressure 29.93 in    
Wind  
Wind Speed 6 mph ()    
Max Wind Speed 10 mph    
Max Gust Speed -    
Averages and records for this station are not official NWS values.
T = Trace of Precipitation, MM = Missing Value Source: Averaged Metar Reports

Daily Weather History Graph

Daily Weather History Graph

Search for Another Location

Airport or City:

Trip Planner

Search our weather history database for the weather conditions in past years. The results will help you decide how hot, cold, wet, or windy it might be!

Date:

Astronomy

Dec. 07, 2012 Rise Set
Actual Time 7:47 AM EST 4:49 PM EST
Civil Twilight 7:14 AM EST 5:22 PM EST
Nautical Twilight 6:38 AM EST 5:58 PM EST
Astronomical Twilight 6:03 AM EST 6:33 PM EST
Moon 12:54 AM EST (12/7) 12:55 PM EST (12/7)
Length of Visible Light 10h 07m
Length of Day
9h 02m
Last Quarter, 39% of the Moon is Illuminated
Dec 7
Last Quarter
Dec 13
New
Dec 20
First Quarter
Dec 28
Full
Jan 4
Last Quarter

Hourly Weather History & Observations

Time (EST) Temp. Windchill Dew Point Humidity Pressure Visibility Wind Dir Wind Speed Gust Speed Precip Events Conditions
12:00 AM 35.6 °F 28.0 °F 29.3 °F 78% 29.96 in - South 10.4 mph - N/A   Unknown
1:00 AM 36 °F - 30 °F 70% 29.95 in - South 10.4 mph - -  
1:00 AM 36.0 °F 28.5 °F 29.8 °F 78% 29.95 in - South 10.4 mph - N/A   Unknown
2:00 AM 36.7 °F 29.4 °F 30.4 °F 78% 29.93 in - South 10.4 mph - N/A   Unknown
3:00 AM 37.8 °F 31.3 °F 31.1 °F 77% 29.95 in - South 9.2 mph - N/A   Unknown
4:00 AM 37.4 °F 30.8 °F 31.8 °F 80% 29.92 in - South 9.2 mph - N/A   Unknown
5:00 AM 37.4 °F 32.1 °F 32.0 °F 81% 29.93 in - South 6.9 mph - N/A   Unknown
6:00 AM 37.0 °F 31.6 °F 31.5 °F 80% 29.93 in - South 6.9 mph - N/A   Unknown
7:00 AM 38 °F - 33 °F 76% 29.94 in - SSE 5.8 mph - -  
7:00 AM 37.6 °F 33.1 °F 33.1 °F 84% 29.94 in - SSE 5.8 mph - N/A   Unknown
8:00 AM 38.5 °F 34.1 °F 34.5 °F 86% 29.93 in - South 5.8 mph - N/A   Unknown
9:00 AM 38.5 °F 34.1 °F 36.0 °F 91% 29.94 in - South 5.8 mph - N/A   Unknown
10:00 AM 39.0 °F 35.7 °F - N/A% 29.94 in - South 4.6 mph - N/A   Unknown
11:00 AM 39.9 °F 37.8 °F - N/A% 29.95 in - SSE 3.5 mph - N/A   Unknown
12:00 PM 41.0 °F 39.0 °F 38.3 °F 90% 29.94 in - SSW 3.5 mph - N/A   Unknown
1:00 PM 40 °F - - % 29.92 in - South 4.6 mph - -  
1:00 PM 40.5 °F 37.3 °F - N/A% 29.92 in - South 4.6 mph - N/A   Unknown
2:00 PM 41.2 °F - 41.0 °F 99% 29.91 in - SW 2.3 mph - N/A   Unknown
3:00 PM 40.6 °F - 40.6 °F 100% 29.91 in - South 2.3 mph - N/A   Unknown
4:00 PM 41.0 °F - 40.8 °F 99% 29.92 in - SSE 2.3 mph - N/A   Unknown
5:00 PM 40.1 °F - - N/A% 29.94 in - Calm Calm - N/A   Unknown
6:00 PM 40.3 °F - 38.5 °F 93% 29.95 in - SE 1.2 mph - N/A   Unknown
7:00 PM 40 °F - 40 °F 100% 29.94 in - East 3.5 mph - -  
8:00 PM 39.7 °F - 39.4 °F 99% 29.94 in - NNE 2.3 mph - N/A   Unknown
9:00 PM 39.9 °F 35.1 °F 37.2 °F 90% 29.94 in - NE 6.9 mph - N/A   Unknown
10:00 PM 39.2 °F 35.0 °F 36.5 °F 90% 29.93 in - NE 5.8 mph - N/A   Unknown
11:00 PM 38.8 °F 34.6 °F 36.0 °F 89% 29.92 in - NNE 5.8 mph - N/A   Unknown